FW4098 Weather Reports


time (UTC)temp
F
wind
direction
speed
knots
gust
knots
rain 1hr
in
rain 24hr
in
rain mn
in
humidity
%
barometer
mb
20260510044531 74 360 3.5 11.3 0.00 0.25 0.18 71 1008.2
20260510043031 74 360 3.5 9.6 0.00 0.25 0.18 71 1007.7
20260510041529 75 360 4.3 11.3 0.00 0.25 0.18 71 1007.8
20260510040031 75 360 2.6 10.4 0.00 0.25 0.18 70 1007.5
20260510034529 75 360 5.2 10.4 0.00 0.47 0.18 70 1006.8
20260510033029 76 360 6.1 12.2 0.00 0.47 0.18 70 1006.4
20260510031539 76 360 7.0 13.0 0.00 0.47 0.18 69 1006.1
20260510030028 77 360 5.2 12.2 0.00 0.47 0.18 68 1006.3
20260510024536 77 360 5.2 11.3 0.00 0.47 0.18 68 1006.1
20260510023026 78 360 5.2 13.9 0.00 0.47 0.18 67 1005.9
20260510021526 79 360 6.1 16.5 0.00 0.47 0.18 66 1005.6
20260510020025 79 360 7.0 13.9 0.00 0.47 0.18 65 1005.6
20260510014524 80 360 5.2 11.3 0.00 0.47 0.18 63 1005.6
20260510013024 81 360 5.2 12.2 0.00 0.47 0.18 62 1005.5
20260510011533 81 360 6.1 13.0 0.00 0.47 0.18 62 1005.2
20260510010022 82 360 7.8 17.4 0.00 0.47 0.18 61 1004.9
20260510004523 83 360 12.2 18.2 0.00 0.47 0.18 60 1004.5
20260510003046 83 360 10.4 17.4 0.00 0.47 0.18 60 1005.2
20260510001518 84 360 7.8 11.3 0.00 0.47 0.18 58 1005.4
20260510000018 85 360 4.3 11.3 0.00 0.47 0.18 55 1005.6
20260509234526 86 360 7.8 12.2 0.00 0.47 0.18 51 1005.7
20260509233021 87 360 7.0 12.2 0.00 0.47 0.18 52 1005.6
20260509231525 87 360 7.0 13.9 0.00 0.47 0.18 52 1005.7
20260509230020 88 360 6.1 13.9 0.00 0.47 0.18 52 1005.8
20260509224515 87 360 8.7 13.0 0.00 0.47 0.18 53 1006.0
20260509223012 87 360 6.1 11.3 0.00 0.47 0.18 53 1006.2
20260509221509 87 360 7.0 12.2 0.01 0.47 0.18 53 1006.4
20260509220009 87 360 7.0 13.0 0.01 0.47 0.18 52 1006.7
20260509214508 87 360 6.1 12.2 0.01 0.47 0.18 53 1006.9
20260509213003 87 360 7.8 10.4 0.01 0.47 0.18 50 1007.2
20260509211605 87 360 4.3 10.4 0.00 0.46 0.17 51 1007.4
20260509204555 86 360 5.2 9.6 0.00 0.46 0.17 51 1007.9
20260509203055 86 360 3.5 12.2 0.00 0.46 0.17 49 1008.2
20260509201555 86 360 5.2 11.3 0.00 0.46 0.17 52 1008.4
20260509200155 85 360 5.2 9.6 0.00 0.46 0.17 53 1008.5
20260509194551 86 360 4.3 7.8 0.00 0.46 0.17 54 1008.9
20260509193050 85 360 2.6 7.8 0.00 0.46 0.17 53 1009.0
20260509191550 85 360 2.6 8.7 0.00 0.46 0.17 52 1009.2
20260509190048 84 360 3.5 7.0 0.01 0.46 0.17 50 1009.2
20260509184546 84 360 2.6 7.8 0.01 0.46 0.17 51 1009.2
20260509183114 83 360 6.1 9.6 0.01 0.46 0.17 52 1009.4
20260509181600 84 360 4.3 9.6 0.01 0.46 0.17 54 1009.5
20260509180040 82 360 7.0 10.4 0.00 0.45 0.16 56 1009.9
20260509174537 82 360 5.2 9.6 0.00 0.45 0.16 57 1010.2
20260509173032 82 360 3.5 7.8 0.00 0.45 0.16 56 1010.4
20260509171529 81 360 4.3 7.8 0.00 0.45 0.16 60 1010.6
20260509170025 80 360 2.6 5.2 0.00 0.45 0.16 62 1010.7
20260509164521 80 360 2.6 7.0 0.00 0.45 0.16 63 1010.9
20260509163027 78 360 0.0 5.2 0.00 0.45 0.16 65 1011.1
20260509161514 78 360 0.9 5.2 0.01 0.45 0.16 69 1011.1
20260509160010 76 360 0.0 3.5 0.01 0.45 0.16 71 1011.1
20260509154504 74 360 0.9 5.2 0.01 0.45 0.16 72 1011.2
20260509153100 74 360 3.5 5.2 0.01 0.45 0.16 72 1011.3
20260509151556 72 360 0.9 4.3 0.00 0.44 0.15 75 1011.3
20260509150051 72 360 0.0 3.5 0.01 0.44 0.15 77 1011.3
20260509144547 71 360 3.5 7.0 0.01 0.44 0.15 76 1011.4
20260509143043 70 360 0.0 1.7 0.01 0.44 0.15 79 1011.4
20260509141538 68 360 1.7 2.6 0.01 0.44 0.15 83 1011.3
20260509140034 66 360 0.0 4.3 0.00 0.43 0.14 87 1011.6
20260509134530 65 360 0.9 3.5 0.00 0.43 0.14 90 1011.7
20260509133028 63 360 2.6 4.3 0.00 0.43 0.14 92 1011.6
20260509131523 62 360 1.7 3.5 0.00 0.43 0.14 93 1011.6
20260509130022 61 360 0.0 1.7 0.00 0.43 0.14 93 1011.5
20260509124520 60 360 2.6 5.2 0.01 0.43 0.14 93 1011.4
20260509123018 59 360 1.7 3.5 0.01 0.43 0.14 93 1011.4
20260509121523 59 360 0.0 2.6 0.01 0.43 0.14 93 1011.1
20260509120016 58 360 0.0 3.5 0.01 0.43 0.14 92 1011.0
20260509114510 59 360 0.0 3.5 0.00 0.42 0.13 92 1010.7
20260509113008 59 360 1.7 5.2 0.00 0.42 0.13 92 1010.7
20260509111506 60 360 2.6 5.2 0.01 0.42 0.13 92 1010.6
20260509110006 60 360 0.0 2.6 0.01 0.42 0.13 91 1009.8
20260509104504 60 360 0.0 3.5 0.01 0.42 0.13 91 1009.7
20260509103002 60 360 1.7 7.0 0.01 0.42 0.13 91 1009.5
20260509101502 61 360 0.9 4.3 0.01 0.41 0.12 91 1009.4
20260509100001 61 360 0.9 3.5 0.01 0.41 0.12 91 1009.1
20260509094600 61 360 2.6 5.2 0.01 0.41 0.12 90 1008.8
20260509093100 61 360 3.5 7.0 0.01 0.41 0.12 90 1008.5
20260509091558 61 360 2.6 7.0 0.01 0.40 0.11 90 1008.2
20260509090056 61 360 1.7 4.3 0.01 0.40 0.11 89 1008.1
20260509084557 62 360 1.7 5.2 0.02 0.40 0.11 89 1008.5
20260509083052 62 360 2.6 4.3 0.02 0.40 0.11 89 1008.6
20260509081552 61 360 0.9 5.2 0.02 0.39 0.10 89 1008.6
20260509080055 62 360 1.7 4.3 0.02 0.39 0.10 88 1008.9
20260509074549 62 360 2.6 7.0 0.02 0.38 0.09 89 1008.9
20260509073046 62 360 2.6 7.0 0.03 0.38 0.09 89 1009.2
20260509071545 62 360 2.6 7.0 0.03 0.37 0.08 89 1009.4
20260509070045 62 360 2.6 7.0 0.04 0.37 0.08 89 1009.6
20260509064546 62 360 1.7 5.2 0.04 0.36 0.07 89 1009.7
20260509063043 62 360 2.6 7.8 0.04 0.35 0.06 89 1009.7
20260509061542 62 360 3.5 7.0 0.04 0.34 0.05 89 1010.0
20260509060040 62 360 1.7 10.4 0.04 0.33 0.04 89 1009.7
20260509054540 62 360 7.0 10.4 0.04 0.32 0.03 89 1010.2
20260509053040 62 360 4.3 10.4 0.05 0.31 0.02 89 1009.7
20260509051538 62 360 2.6 5.2 0.06 0.30 0.01 89 1009.6
20260509050030 62 360 1.7 5.2 0.07 0.28 0.00 89 1010.5